| time (UTC) | temp F | wind direction | speed knots | gust knots | rain 1hr in | rain 24hr in | rain mn in | humidity % | barometer mb |
| 20260904022339 | 95 | 136 | 7.0 | 10.4 | 0.00 | 0.00 | 0.00 | 37 | 1006.1 |
| 20260904021327 | 96 | 149 | 3.5 | 11.3 | 0.00 | 0.00 | 0.00 | 37 | 1006.0 |
| 20260904020354 | 97 | 158 | 5.2 | 8.7 | 0.00 | 0.00 | 0.00 | 36 | 1006.0 |
| 20260904015359 | 97 | 158 | 3.5 | 9.6 | 0.00 | 0.00 | 0.00 | 35 | 1005.9 |
| 20260904014329 | 99 | 101 | 4.3 | 12.2 | 0.00 | 0.00 | 0.00 | 33 | 1005.8 |
| 20260904013336 | 100 | 177 | 0.0 | 2.6 | 0.00 | 0.00 | 0.00 | 29 | 1005.7 |
| 20260904012342 | 100 | 254 | 0.9 | 6.1 | 0.00 | 0.00 | 0.00 | 29 | 1005.7 |
| 20260904011351 | 100 | 236 | 1.7 | 3.5 | 0.00 | 0.00 | 0.00 | 28 | 1005.7 |
| 20260904010337 | 101 | 232 | 2.6 | 6.1 | 0.00 | 0.00 | 0.00 | 28 | 1005.6 |
| 20260904005328 | 101 | 235 | 0.9 | 5.2 | 0.00 | 0.00 | 0.00 | 28 | 1005.7 |
| 20260904004336 | 101 | 175 | 1.7 | 6.1 | 0.00 | 0.00 | 0.00 | 29 | 1005.8 |
| 20260904003343 | 101 | 242 | 3.5 | 7.0 | 0.00 | 0.00 | 0.00 | 28 | 1005.7 |
| 20260904002350 | 102 | 269 | 2.6 | 5.2 | 0.00 | 0.00 | 0.00 | 27 | 1005.7 |
| 20260904001340 | 102 | 289 | 2.6 | 7.0 | 0.00 | 0.00 | 0.00 | 27 | 1005.7 |
| 20260904000328 | 103 | 145 | 1.7 | 4.3 | 0.00 | 0.00 | 0.00 | 27 | 1005.8 |
| 20260903235354 | 103 | 36 | 1.7 | 4.3 | 0.00 | 0.00 | 0.00 | 27 | 1005.9 |
| 20260903234340 | 102 | 283 | 0.9 | 3.5 | 0.00 | 0.00 | 0.00 | 27 | 1005.9 |
| 20260903233331 | 102 | 292 | 1.7 | 7.0 | 0.00 | 0.00 | 0.00 | 28 | 1006.0 |
| 20260903232336 | 102 | 320 | 3.5 | 7.0 | 0.00 | 0.00 | 0.00 | 28 | 1006.1 |
| 20260903231343 | 102 | 223 | 2.6 | 8.7 | 0.00 | 0.00 | 0.00 | 27 | 1006.2 |
| 20260903230349 | 103 | 249 | 1.7 | 7.8 | 0.00 | 0.00 | 0.00 | 28 | 1006.4 |
| 20260903225338 | 102 | 182 | 5.2 | 10.4 | 0.00 | 0.00 | 0.00 | 28 | 1006.4 |
| 20260903224405 | 102 | 150 | 3.5 | 8.7 | 0.00 | 0.00 | 0.00 | 28 | 1006.5 |
| 20260903223332 | 101 | 271 | 3.5 | 7.0 | 0.00 | 0.00 | 0.00 | 29 | 1006.7 |
| 20260903222340 | 101 | 234 | 0.9 | 6.1 | 0.00 | 0.00 | 0.00 | 29 | 1006.8 |
| 20260903221332 | 101 | 218 | 5.2 | 8.7 | 0.00 | 0.00 | 0.00 | 29 | 1006.9 |
| 20260903220339 | 100 | 134 | 2.6 | 8.7 | 0.00 | 0.00 | 0.00 | 30 | 1007.0 |
| 20260903215406 | 99 | 150 | 0.9 | 5.2 | 0.00 | 0.00 | 0.00 | 30 | 1007.3 |
| 20260903214333 | 100 | 244 | 1.7 | 7.8 | 0.00 | 0.00 | 0.00 | 30 | 1007.5 |
| 20260903213340 | 99 | 157 | 4.3 | 11.3 | 0.00 | 0.00 | 0.00 | 30 | 1007.7 |
| 20260903212332 | 99 | 277 | 0.9 | 8.7 | 0.00 | 0.00 | 0.00 | 30 | 1007.7 |
| 20260903211341 | 99 | 98 | 4.3 | 9.6 | 0.00 | 0.00 | 0.00 | 30 | 1007.9 |
| 20260903210328 | 99 | 169 | 2.6 | 7.0 | 0.00 | 0.00 | 0.00 | 31 | 1008.1 |
| 20260903205354 | 100 | 136 | 1.7 | 8.7 | 0.00 | 0.00 | 0.00 | 30 | 1008.2 |
| 20260903204403 | 99 | 190 | 3.5 | 10.4 | 0.00 | 0.00 | 0.00 | 30 | 1008.4 |
| 20260903203349 | 99 | 202 | 1.7 | 7.0 | 0.00 | 0.00 | 0.00 | 30 | 1008.6 |
| 20260903202335 | 100 | 234 | 5.2 | 13.0 | 0.00 | 0.00 | 0.00 | 29 | 1008.7 |
| 20260903201343 | 99 | 84 | 3.5 | 9.6 | 0.00 | 0.00 | 0.00 | 31 | 1008.9 |
| 20260903200355 | 100 | 145 | 5.2 | 10.4 | 0.00 | 0.00 | 0.00 | 31 | 1008.9 |
| 20260903195402 | 99 | 32 | 0.9 | 12.2 | 0.00 | 0.00 | 0.00 | 30 | 1009.0 |
| 20260903194328 | 99 | 153 | 4.3 | 8.7 | 0.00 | 0.00 | 0.00 | 31 | 1009.2 |
| 20260903193336 | 98 | 227 | 2.6 | 12.2 | 0.00 | 0.00 | 0.00 | 30 | 1009.4 |
| 20260903192343 | 98 | 227 | 1.7 | 8.7 | 0.00 | 0.00 | 0.00 | 33 | 1009.5 |
| 20260903191335 | 99 | 163 | 6.1 | 10.4 | 0.00 | 0.00 | 0.00 | 31 | 1009.7 |
| 20260903190340 | 99 | 192 | 4.3 | 8.7 | 0.00 | 0.00 | 0.00 | 31 | 1009.9 |
| 20260903185327 | 98 | 227 | 0.9 | 7.8 | 0.00 | 0.00 | 0.00 | 30 | 1010.1 |
| 20260903184333 | 98 | 231 | 5.2 | 7.8 | 0.00 | 0.00 | 0.00 | 31 | 1010.2 |
| 20260903183343 | 97 | 111 | 4.3 | 8.7 | 0.00 | 0.00 | 0.00 | 33 | 1010.3 |
| 20260903182352 | 97 | 49 | 1.7 | 11.3 | 0.00 | 0.00 | 0.00 | 34 | 1010.5 |
| 20260903181339 | 97 | 246 | 1.7 | 5.2 | 0.00 | 0.00 | 0.00 | 33 | 1010.7 |
| 20260903180345 | 96 | 194 | 0.9 | 7.8 | 0.00 | 0.00 | 0.00 | 36 | 1010.9 |
| 20260903175336 | 95 | 142 | 5.2 | 8.7 | 0.00 | 0.00 | 0.00 | 35 | 1011.1 |
| 20260903174403 | 95 | 245 | 4.3 | 9.6 | 0.00 | 0.00 | 0.00 | 37 | 1011.1 |
| 20260903173329 | 94 | 80 | 3.5 | 9.6 | 0.00 | 0.00 | 0.00 | 41 | 1011.2 |
| 20260903172336 | 94 | 162 | 6.1 | 9.6 | 0.00 | 0.00 | 0.00 | 40 | 1011.3 |
| 20260903171326 | 94 | 124 | 3.5 | 11.3 | 0.00 | 0.00 | 0.00 | 40 | 1011.2 |
| 20260903170353 | 94 | 140 | 6.1 | 8.7 | 0.00 | 0.00 | 0.00 | 41 | 1011.2 |
| 20260903165340 | 93 | 161 | 2.6 | 7.8 | 0.00 | 0.00 | 0.00 | 43 | 1011.3 |
| 20260903164406 | 93 | 152 | 3.5 | 7.8 | 0.00 | 0.00 | 0.00 | 43 | 1011.4 |
| 20260903163333 | 93 | 148 | 3.5 | 6.1 | 0.00 | 0.00 | 0.00 | 44 | 1011.3 |
| 20260903162344 | 92 | 92 | 2.6 | 8.7 | 0.00 | 0.00 | 0.00 | 44 | 1011.4 |
| 20260903161351 | 92 | 173 | 3.5 | 6.1 | 0.00 | 0.00 | 0.00 | 45 | 1011.5 |
| 20260903160358 | 91 | 123 | 2.6 | 6.1 | 0.00 | 0.00 | 0.00 | 46 | 1011.4 |
| 20260903155345 | 91 | 117 | 2.6 | 7.0 | 0.00 | 0.00 | 0.00 | 46 | 1011.5 |
| 20260903154335 | 91 | 120 | 1.7 | 7.0 | 0.00 | 0.00 | 0.00 | 47 | 1011.6 |
| 20260903153344 | 91 | 64 | 3.5 | 6.1 | 0.00 | 0.00 | 0.00 | 47 | 1011.5 |
| 20260903152351 | 91 | 52 | 0.9 | 5.2 | 0.00 | 0.00 | 0.00 | 47 | 1011.6 |
| 20260903151337 | 91 | 109 | 2.6 | 5.2 | 0.00 | 0.00 | 0.00 | 48 | 1011.6 |
| 20260903150329 | 89 | 333 | 0.9 | 1.7 | 0.00 | 0.00 | 0.00 | 49 | 1011.6 |
| 20260903145336 | 88 | 161 | 0.0 | 1.7 | 0.00 | 0.00 | 0.00 | 50 | 1011.7 |
| 20260903144343 | 88 | 232 | 0.0 | 2.6 | 0.00 | 0.00 | 0.00 | 52 | 1011.7 |
| 20260903143352 | 87 | 211 | 0.0 | 1.7 | 0.00 | 0.00 | 0.00 | 54 | 1011.6 |
| 20260903142338 | 86 | 304 | 0.9 | 2.6 | 0.00 | 0.00 | 0.00 | 55 | 1011.6 |
| 20260903141329 | 85 | 262 | 0.0 | 2.6 | 0.00 | 0.00 | 0.00 | 56 | 1011.5 |
| 20260903140336 | 85 | 279 | 0.9 | 2.6 | 0.00 | 0.00 | 0.00 | 57 | 1011.3 |
| 20260903135343 | 85 | 333 | 0.0 | 1.7 | 0.00 | 0.00 | 0.00 | 57 | 1011.2 |
| 20260903134334 | 85 | 340 | 1.7 | 3.5 | 0.00 | 0.00 | 0.00 | 56 | 1011.0 |
| 20260903133341 | 85 | 313 | 0.9 | 2.6 | 0.00 | 0.00 | 0.00 | 56 | 1010.9 |
| 20260903132326 | 85 | 302 | 0.0 | 3.5 | 0.00 | 0.00 | 0.00 | 55 | 1010.7 |
| 20260903131334 | 85 | 261 | 2.6 | 5.2 | 0.00 | 0.00 | 0.00 | 54 | 1010.6 |
| 20260903130345 | 85 | 288 | 0.0 | 6.1 | 0.00 | 0.00 | 0.00 | 54 | 1010.5 |
| 20260903125332 | 85 | 259 | 1.7 | 6.1 | 0.00 | 0.00 | 0.00 | 54 | 1010.5 |
| 20260903124340 | 86 | 298 | 2.6 | 7.8 | 0.00 | 0.00 | 0.00 | 54 | 1010.4 |
| 20260903123347 | 86 | 261 | 2.6 | 6.1 | 0.00 | 0.00 | 0.00 | 54 | 1010.3 |
| 20260903122339 | 86 | 240 | 3.5 | 7.0 | 0.00 | 0.00 | 0.00 | 53 | 1010.2 |
| 20260903121326 | 86 | 267 | 2.6 | 6.1 | 0.00 | 0.00 | 0.00 | 53 | 1010.2 |
| 20260903120333 | 86 | 257 | 0.9 | 5.2 | 0.00 | 0.00 | 0.00 | 52 | 1010.1 |
| 20260903115340 | 87 | 223 | 5.2 | 8.7 | 0.00 | 0.00 | 0.00 | 52 | 1010.0 |
| 20260903114330 | 87 | 267 | 0.0 | 4.3 | 0.00 | 0.00 | 0.00 | 51 | 1010.0 |
| 20260903113337 | 87 | 222 | 0.9 | 6.1 | 0.00 | 0.00 | 0.00 | 50 | 1010.0 |
| 20260903112343 | 87 | 217 | 1.7 | 4.3 | 0.00 | 0.00 | 0.00 | 49 | 1009.8 |
| 20260903111331 | 87 | 301 | 3.5 | 5.2 | 0.00 | 0.00 | 0.00 | 49 | 1009.8 |
| 20260903110401 | 88 | 256 | 2.6 | 6.1 | 0.00 | 0.00 | 0.00 | 48 | 1009.7 |
| 20260903105327 | 88 | 269 | 3.5 | 7.8 | 0.00 | 0.00 | 0.00 | 47 | 1009.8 |
| 20260903104355 | 88 | 257 | 2.6 | 9.6 | 0.00 | 0.00 | 0.00 | 47 | 1009.8 |
| 20260903103402 | 88 | 257 | 1.7 | 6.1 | 0.00 | 0.00 | 0.00 | 46 | 1009.9 |
| 20260903102328 | 88 | 292 | 2.6 | 9.6 | 0.00 | 0.00 | 0.00 | 46 | 1009.9 |
| 20260903101339 | 88 | 271 | 3.5 | 9.6 | 0.00 | 0.00 | 0.00 | 46 | 1009.9 |
| 20260903100327 | 88 | 302 | 2.6 | 7.0 | 0.00 | 0.00 | 0.00 | 42 | 1009.9 |
| 20260903095334 | 88 | 34 | 0.0 | 1.7 | 0.00 | 0.00 | 0.00 | 35 | 1010.0 |
| 20260903094340 | 89 | 337 | 0.0 | 0.9 | 0.00 | 0.00 | 0.00 | 34 | 1009.9 |
| 20260903093331 | 89 | 279 | 0.0 | 3.5 | 0.00 | 0.00 | 0.00 | 33 | 1009.8 |
| 20260903092337 | 89 | 281 | 0.0 | 2.6 | 0.00 | 0.00 | 0.00 | 32 | 1009.8 |
| 20260903091346 | 89 | 259 | 0.9 | 4.3 | 0.00 | 0.00 | 0.00 | 31 | 1009.7 |
| 20260903090331 | 89 | 277 | 1.7 | 6.1 | 0.00 | 0.00 | 0.00 | 30 | 1009.7 |
| 20260903085342 | 89 | 261 | 1.7 | 3.5 | 0.00 | 0.00 | 0.00 | 29 | 1009.7 |
| 20260903084330 | 89 | 304 | 0.9 | 5.2 | 0.00 | 0.00 | 0.00 | 27 | 1009.7 |
| 20260903083336 | 89 | 341 | 0.0 | 2.6 | 0.00 | 0.00 | 0.00 | 27 | 1009.8 |
| 20260903082343 | 90 | 326 | 0.0 | 0.9 | 0.00 | 0.00 | 0.00 | 28 | 1009.8 |
| 20260903081335 | 90 | 268 | 0.0 | 1.7 | 0.00 | 0.00 | 0.00 | 26 | 1009.8 |
| 20260903080341 | 90 | 313 | 0.0 | 2.6 | 0.00 | 0.00 | 0.00 | 26 | 1009.7 |
| 20260903075328 | 90 | 258 | 0.0 | 1.7 | 0.00 | 0.00 | 0.00 | 25 | 1009.7 |
| 20260903074334 | 90 | 240 | 0.0 | 1.7 | 0.00 | 0.00 | 0.00 | 25 | 1009.6 |
| 20260903073326 | 90 | 260 | 0.0 | 1.7 | 0.00 | 0.00 | 0.00 | 26 | 1009.6 |
| 20260903072353 | 90 | 213 | 0.0 | 1.7 | 0.00 | 0.00 | 0.00 | 26 | 1009.6 |
| 20260903071337 | 91 | 189 | 0.0 | 0.0 | 0.00 | 0.00 | 0.00 | 28 | 1009.7 |
| 20260903070344 | 91 | 189 | 0.0 | 0.0 | 0.00 | 0.00 | 0.00 | 28 | 1009.6 |
| 20260903065335 | 91 | 189 | 0.0 | 0.9 | 0.00 | 0.00 | 0.00 | 27 | 1009.5 |
| 20260903064341 | 92 | 215 | 0.0 | 1.7 | 0.00 | 0.00 | 0.00 | 27 | 1009.4 |
| 20260903063348 | 92 | 231 | 0.9 | 1.7 | 0.00 | 0.00 | 0.00 | 27 | 1009.3 |
| 20260903062334 | 93 | 221 | 0.9 | 2.6 | 0.00 | 0.00 | 0.00 | 27 | 1009.2 |
| 20260903061345 | 93 | 235 | 0.9 | 2.6 | 0.00 | 0.00 | 0.00 | 28 | 1009.3 |
| 20260903060352 | 94 | 216 | 0.9 | 3.5 | 0.00 | 0.00 | 0.00 | 28 | 1009.3 |
| 20260903055338 | 94 | 250 | 1.7 | 5.2 | 0.00 | 0.00 | 0.00 | 27 | 1009.2 |
| 20260903054405 | 94 | 227 | 1.7 | 6.1 | 0.00 | 0.00 | 0.00 | 26 | 1009.1 |
| 20260903053351 | 94 | 229 | 0.9 | 5.2 | 0.00 | 0.00 | 0.00 | 28 | 1009.2 |
| 20260903052342 | 95 | 296 | 1.7 | 7.8 | 0.00 | 0.00 | 0.00 | 29 | 1009.3 |
| 20260903051349 | 95 | 254 | 2.6 | 8.7 | 0.00 | 0.00 | 0.00 | 32 | 1009.3 |
| 20260903050355 | 95 | 259 | 3.5 | 6.1 | 0.00 | 0.00 | 0.00 | 35 | 1009.3 |
| 20260903045400 | 95 | 222 | 1.7 | 4.3 | 0.00 | 0.00 | 0.00 | 36 | 1009.3 |
| 20260903044326 | 96 | 220 | 2.6 | 6.1 | 0.00 | 0.00 | 0.00 | 35 | 1009.2 |
| 20260903043338 | 96 | 240 | 1.7 | 4.3 | 0.00 | 0.00 | 0.00 | 35 | 1009.2 |
| 20260903042326 | 96 | 269 | 1.7 | 4.3 | 0.00 | 0.00 | 0.00 | 35 | 1009.2 |
| 20260903041333 | 96 | 260 | 0.9 | 4.3 | 0.00 | 0.00 | 0.00 | 34 | 1009.2 |
| 20260903040325 | 96 | 254 | 2.6 | 6.1 | 0.00 | 0.00 | 0.00 | 33 | 1009.1 |
| 20260903035331 | 97 | 249 | 0.9 | 3.5 | 0.00 | 0.00 | 0.00 | 33 | 1008.9 |
| 20260903034337 | 97 | 246 | 1.7 | 7.0 | 0.00 | 0.00 | 0.00 | 32 | 1008.9 |
| 20260903033344 | 97 | 270 | 2.6 | 7.8 | 0.00 | 0.00 | 0.00 | 32 | 1008.9 |
| 20260903032350 | 97 | 231 | 4.3 | 7.0 | 0.00 | 0.00 | 0.00 | 31 | 1008.8 |
| 20260903031338 | 98 | 227 | 1.7 | 5.2 | 0.00 | 0.00 | 0.00 | 29 | 1008.7 |
| 20260903030346 | 98 | 244 | 3.5 | 8.7 | 0.00 | 0.00 | 0.00 | 29 | 1008.6 |
| 20260903025332 | 98 | 273 | 4.3 | 9.6 | 0.00 | 0.00 | 0.00 | 29 | 1008.5 |
| 20260903024338 | 98 | 273 | 2.6 | 7.8 | 0.00 | 0.00 | 0.00 | 30 | 1008.5 |
| 20260903023330 | 98 | 207 | 3.5 | 9.6 | 0.00 | 0.00 | 0.00 | 30 | 1008.3 |